EDT,Max TemperatureF,Mean TemperatureF,Min TemperatureF,Max Dew PointF,MeanDew PointF,Min DewpointF,Max Humidity, Mean Humidity, Min Humidity, Max Sea Level PressureIn, Mean Sea Level PressureIn, Min Sea Level PressureIn, Max VisibilityMiles, Mean VisibilityMiles, Min VisibilityMiles, Max Wind SpeedMPH, Mean Wind SpeedMPH, Max Gust SpeedMPH,PrecipitationIn, CloudCover, Events, WindDirDegrees
2012-3-1,50,46,37,43,39,30,100,84,61,29.98,29.74,29.64,10,8,2,15,8,22,0.03,6,Rain,19
2012-3-2,46,39,32,42,34,28,93,79,59,30.12,30.02,29.78,10,9,3,15,7,21,0.20,7,Rain,114
2012-3-3,57,51,45,49,39,17,100,74,25,29.71,29.58,29.53,10,7,0,20,7,30,0.14,5,Fog-Rain,275
2012-3-4,44,40,35,24,20,17,59,45,35,29.83,29.73,29.64,10,10,10,16,9,23,0.00,4,,292
2012-3-5,44,36,28,21,16,6,61,44,30,30.42,30.09,29.85,10,10,10,16,10,22,0.00,1,,301
2012-3-6,43,34,26,25,13,6,65,41,27,30.68,30.60,30.45,10,10,10,15,7,24,0.00,0,,254
2012-3-7,62,46,30,43,32,26,82,56,29,30.61,30.48,30.35,10,10,10,17,7,26,0.01,0,,208
2012-3-8,69,60,52,49,46,43,75,58,42,30.35,30.14,29.90,10,10,10,24,13,38,0.00,2,,215
2012-3-9,63,50,37,52,28,12,86,51,29,30.33,30.12,29.88,10,10,6,23,14,38,0.01,4,Rain,309
2012-3-10,42,36,30,16,11,7,54,36,26,30.56,30.50,30.34,10,10,10,16,8,28,0.00,1,,335
2012-3-11,57,44,30,31,23,12,61,43,28,30.58,30.48,30.39,10,10,10,18,6,25,0.00,0,,225
2012-3-12,68,52,37,44,34,30,79,51,26,30.40,30.29,30.15,10,10,10,12,5,18,0.02,1,,219
2012-3-13,75,64,54,54,51,44,94,66,46,30.13,30.04,29.96,10,10,4,16,8,24,0.06,4,Rain,217
2012-3-14,72,63,53,53,36,25,90,43,17,30.19,30.13,30.02,10,10,10,17,5,24,0.00,0,,297
2012-3-15,54,48,44,45,41,33,93,79,54,30.32,30.27,30.19,10,9,3,16,8,20,0.00,6,,79
2012-3-16,57,50,44,47,45,43,100,88,69,30.27,30.20,30.13,10,6,1,10,6,,0.00,6,Rain,61
2012-3-17,68,54,41,49,44,39,100,83,50,30.39,30.30,30.20,10,5,0,13,4,,0.00,3,Fog,86
2012-3-18,66,56,45,49,46,43,93,78,52,30.40,30.34,30.23,10,6,2,8,2,,0.00,5,,211
2012-3-19,75,60,46,56,48,42,90,65,31,30.25,30.22,30.17,10,9,6,10,3,,0.00,0,,212
2012-3-20,73,63,53,59,56,52,100,84,55,30.33,30.28,30.23,10,6,0,14,3,17,0.00,5,Fog,87
2012-3-21,69,63,57,58,57,55,100,89,61,30.36,30.32,30.28,10,6,1,8,5,,0.02,7,Rain,97
2012-3-22,73,65,57,60,57,55,100,85,59,30.30,30.23,30.12,10,5,0,12,3,,0.00,3,Fog,194
2012-3-23,78,64,51,57,53,47,100,81,45,30.12,30.07,30.03,10,5,0,15,3,20,0.00,0,Fog,88
2012-3-24,61,54,48,48,41,26,90,65,28,30.07,30.01,29.94,10,10,8,22,8,28,0.07,5,Rain,82
2012-3-25,57,52,46,46,44,43,93,82,64,29.94,29.83,29.75,10,9,3,14,9,,0.00,6,Rain,43
2012-3-26,55,45,35,43,25,6,96,50,20,30.20,29.91,29.74,10,10,9,30,10,39,0.02,0,,334
2012-3-27,52,41,30,18,7,2,41,26,15,30.35,30.27,30.21,10,10,10,18,10,25,0.04,0,,329
2012-3-28,66,54,41,49,35,20,64,48,38,30.17,29.83,29.60,10,10,10,16,8,24,0.01,1,Rain,228
2012-3-29,66,53,42,48,34,27,58,49,41,30.06,29.84,29.62,10,10,10,21,12,30,0.00,6,,332
2012-3-30,55,44,34,34,26,22,67,48,28,30.13,30.04,29.93,10,10,10,9,5,,0.02,1,,275
2012-3-31,44,43,41,41,39,37,93,87,74,29.99,29.89,29.85,10,7,2,15,10,20,0.29,8,Rain,56